Probability
0 0 0 0 0 0 0 0 0 0 0 0 0 0 0 0 0 0 0 0 0 0 0 0 0 0 0 0 0 0 0 0 0 0 0 0 0 0 0 0 0 0 0
0 0 0 0 0 0 0 0 0 0 0 0 0 0 0 0 0 0 0 0 0 0 0 0 0 0 0 0 0 0 0 0 0 0 0 0 0 0 0 0 0 0 0
0 0 0 0 0 0 0 0 0 0 0 0 0 0 0 0 0 0 0 0 0 0 0 0 0 0 0 0 0 0 0 0 0 0 0 0 0 0 0 0 0 0 0
0 0 0 0 0 0 0 0 0 0 0 0 0 0 0 0 0 0 0 0 0 0 0 0 0 0 0 0 0 0 0 0 0 0 0 0 0 0 0 0 0 0 0
0 0 0 0 0 0 0 0 0 0 0 0 0 0 0 0 0 0 0 0 0 0 0 0 0 0 0 0 0 0 0 0 0 0 0 0 0 0 0 0 0 0 0
0 0 0 0 0 0 0 0 0 0 0 0 0 0 0 0 0 0 0 0 0 0 0 0 0 0 0 0 0 0 0 0 0 0 0 0 0 0 0 0 0 0 0
0 0 0 0 0 0 0 0 0 0 0 0 0 0 0 0 0 0 0 0 0 0 0 0 0 0 0 0 0 0 0 0 0 0 0 0 0 0 0 0 0 0 0
0 0 0 0 0 0 0 0 0 0 0 0 0 0 0 0 0 0 0 0 0 0 0 0 0 0 0 0 0 0 0 0 0 0 0 0 0 0 0 0 0 0 0
0 0 0 0 0 0 0 0 0 0 0 0 0 0 0 0 0 0 0 0 0 0 0 0 0 0 0 0 0 0 0 0 0 0 0 0 0 0 0 0 0 0 0
0 0 0 0 0 0 0 0 0 0 0 0 0 0 0 0 0 0 0 0 0 0 0 0 0 0 0 0 0 0 0 0 0 0 0 0 0 0 0 0 0 0 0
0 0 0 0 0 0 0 0 0 0 0 0 0 0 0 0 0 0 0 0 0 0 0 0 0 0 0 0 0 0 0 0 0 0 0 0 0 0 0 0 0 0 0
0 0 0 0 0 0 0 0 0 0 0 0 0 0 0 0 0 0 0 0 0 0 0 0 0 0 0 0 0 0 0 0 0 0 0 0 0 0 0 0 0 0 0
0 0 0 0 0 0 0 0 0 0 0 0 0 0 0 0 0 0 0 0 0 0 0 0 0 0 0 0 0 0 0 0 0 0 0 0 0 0 0 0 0 0 0
1 0 0 0 0 0 0 0 0 0 0 0 0 0 0 0 0 0 0 0 0 0 0 0 0 0 0 0 0 0 0 0 0 0 0 0 0 0 0 0 0 0 0
2 1 1 0 0 0 0 0 0 0 0 0 0 0 0 0 0 0 0 0 0 0 0 0 0 0 0 0 0 0 0 0 0 0 0 0 0 0 0 0 0 0 0
3 3 2 1 0 0 0 0 0 0 0 0 0 0 0 0 0 0 0 0 0 0 0 0 0 0 0 0 0 0 0 0 0 0 0 0 0 0 0 0 0 0 0
3 3 3 2 1 0 0 0 0 0 0 0 0 0 0 0 0 0 0 0 0 0 0 0 0 0 0 0 0 0 0 0 0 0 0 0 0 0 0 0 0 0 0
1 2 3 3 2 1 0 0 0 0 0 0 0 0 0 0 0 0 0 0 0 0 0 0 0 0 0 0 0 0 0 0 0 0 0 0 0 0 0 0 0 0 0
0 1 1 3 3 2 1 0 0 0 0 0 0 0 0 0 0 0 0 0 0 0 0 0 0 0 0 0 0 0 0 0 0 0 0 0 0 0 0 0 0 0 0
0 0 1 2 3 3 2 1 0 0 0 0 0 0 0 0 0 0 0 0 0 0 0 0 0 0 0 0 0 0 0 0 0 0 0 0 0 0 0 0 0 0 0
0 0 0 1 3 3 3 2 1 0 0 0 0 0 0 0 0 0 0 0 0 0 0 0 0 0 0 0 0 0 0 0 0 0 0 0 0 0 0 0 0 0 0
0 0 0 1 2 3 3 3 2 1 1 0 0 0 0 0 0 0 0 0 0 0 0 0 0 0 0 0 0 0 0 0 0 0 0 0 0 0 0 0 0 0 0
0 0 0 0 1 3 3 3 3 3 2 1 1 0 0 0 0 0 0 0 0 0 0 0 0 0 0 0 0 0 0 0 0 0 0 0 0 0 0 0 0 0 0
0 0 0 0 1 2 3 3 3 3 3 3 2 1 0 0 0 0 0 0 0 0 0 0 0 0 0 0 0 0 0 0 0 0 0 0 0 0 0 0 0 0 0
0 0 0 0 0 1 3 3 3 3 3 3 2 1 0 0 0 0 0 0 0 0 0 0 0 0 0 0 0 0 0 0 0 0 0 0 0 0 0 0 0 0 0
0 0 0 0 0 1 2 3 3 3 3 3 1 0 0 0 0 0 0 0 0 0 0 0 0 0 0 0 0 0 0 0 0 0 0 0 0 0 0 0 0 0 0
Wind_Speed
5 7 12 14 15 15 14 14 13 13 13 13 13 13 13 13 12 12 12 12 11 11 12 12 11 11 11 11 11 11 11 11 10 10 10 10 10 11 10 10 9 6 10
9 9 12 13 15 14 14 13 13 13 12 13 13 13 13 12 12 12 11 11 11 11 11 11 11 11 11 11 11 11 11 10 10 10 9 8 8 9 9 8 8 5 9
11 9 11 13 14 14 14 13 12 12 13 12 12 12 12 11 11 11 10 10 10 10 10 10 10 10 10 10 9 9 9 9 9 9 8 5 4 6 7 7 7 8 7
11 9 9 12 14 14 14 13 12 12 12 12 12 11 11 11 11 10 9 9 9 9 9 9 9 9 9 8 8 8 8 8 8 7 4 4 3 4 6 6 6 6 6
9 8 9 13 14 14 13 13 12 12 11 11 11 11 10 10 10 9 8 8 8 8 8 8 8 8 7 7 7 6 7 7 7 6 4 3 3 4 5 5 5 5 5
8 7 9 13 14 14 13 13 12 11 11 11 10 11 10 9 9 8 8 7 7 7 7 7 7 6 6 6 5 5 5 6 5 3 3 3 3 4 4 4 5 4 4
8 7 8 12 12 12 12 12 12 11 11 10 10 10 9 9 8 8 7 7 6 6 6 5 5 5 4 4 4 4 5 5 3 2 2 3 3 4 4 4 4 4 4
8 7 7 10 11 11 11 11 10 10 10 9 9 9 9 8 8 7 7 6 5 5 5 4 4 3 2 3 3 4 4 3 3 2 2 2 4 5 4 4 4 4 5
7 7 6 6 7 9 9 9 8 8 8 8 7 7 7 6 6 6 5 5 4 4 3 3 2 1 1 2 2 3 3 3 2 1 2 2 5 5 5 4 4 4 5
6 6 5 5 5 5 5 8 8 7 7 6 6 6 6 5 4 4 4 4 4 3 3 2 1 0 1 1 2 2 2 2 2 2 2 3 6 6 6 5 5 5 5
6 5 5 5 5 4 4 5 6 6 6 6 5 6 5 2 2 2 3 4 3 3 3 2 2 1 1 1 2 2 2 1 1 2 2 5 6 6 6 6 6 6 5
8 7 5 5 5 5 4 3 3 3 3 3 3 4 3 2 2 2 3 3 3 2 2 3 2 2 1 1 2 2 1 1 1 2 3 6 7 7 7 6 7 6 6
7 6 6 6 5 5 3 3 2 2 2 3 4 4 3 2 1 1 1 1 1 2 1 1 1 1 1 1 1 1 1 1 1 2 3 6 7 7 7 7 7 6 7
4 5 5 5 5 5 4 3 3 2 2 2 3 4 3 2 2 2 2 2 1 1 1 1 1 2 1 2 2 2 2 2 2 2 2 5 6 7 8 8 7 7 7
4 4 4 4 5 4 4 3 3 3 3 3 3 3 4 3 3 3 2 2 2 2 2 2 2 2 2 2 2 2 3 3 3 2 2 4 6 7 8 8 8 8 7
3 4 4 4 4 4 4 4 3 3 3 3 3 4 4 4 3 3 3 3 3 3 3 3 3 2 2 2 2 2 3 3 3 3 2 3 5 6 7 8 8 8 7
3 3 3 4 4 4 4 3 3 3 3 3 3 4 4 4 4 4 3 3 3 3 3 2 2 2 2 2 2 3 2 3 3 3 3 2 3 4 6 8 8 7 7
1 2 2 2 3 4 3 3 2 2 3 3 3 3 4 5 5 4 4 4 3 3 3 3 2 2 2 2 2 2 2 2 3 3 3 3 2 2 3 5 6 7 7
1 0 1 1 2 3 3 2 2 2 2 2 2 2 3 4 4 4 4 4 4 3 3 3 3 2 2 2 2 2 2 3 3 3 3 3 3 2 2 3 4 5 7
2 1 1 1 1 1 2 1 1 1 1 1 1 2 2 2 3 3 3 3 3 3 3 3 4 3 3 2 2 3 3 3 3 3 3 3 2 2 2 2 2 3 5
5 4 2 1 0 1 1 2 2 2 1 1 1 1 2 2 2 3 3 3 3 4 4 5 4 4 3 2 1 3 3 3 3 3 2 2 2 2 2 2 2 2 2
5 5 3 2 1 0 1 2 2 1 0 0 1 1 1 2 2 2 2 2 3 3 4 4 3 2 3 3 2 1 3 3 2 2 2 2 2 1 2 2 2 2 2
6 5 4 3 2 1 0 1 1 1 1 1 1 1 2 2 1 1 2 2 2 3 3 4 4 4 4 4 4 3 3 3 2 2 2 2 1 1 2 2 2 2 2
4 4 4 4 3 3 2 2 2 1 0 1 1 1 2 2 2 2 2 2 2 2 3 3 4 4 4 3 3 3 3 2 2 3 2 1 1 2 2 2 2 2 2
5 5 5 5 5 4 3 2 1 1 1 1 2 2 2 2 2 3 3 2 2 2 2 3 3 4 4 4 3 2 3 3 3 4 5 3 2 2 3 3 2 2 2
6 6 6 6 5 5 4 3 1 1 2 2 3 2 2 2 2 3 3 3 2 2 2 3 3 3 3 4 3 3 3 2 3 4 6 5 4 3 3 3 3 3 2
Wind_Direction
167 166 164 154 148 143 138 134 129 127 125 123 120 120 119 117 114 110 107 103 99 98 95 93 92 89 88 87 83 78 73 68 66 66 64 67 70 71 68 65 60 47 57
150 158 158 155 149 145 141 138 136 134 132 129 125 123 121 119 117 113 108 105 101 99 97 95 94 90 88 85 81 78 73 68 63 59 53 48 53 65 68 65 61 59 57
142 152 153 152 148 146 143 141 140 140 137 133 129 126 125 124 121 116 111 107 104 101 99 96 94 91 88 85 80 76 70 64 60 54 45 26 24 53 62 61 57 55 52
143 147 151 150 150 149 147 146 144 142 140 138 135 131 129 127 125 121 117 113 109 106 103 100 96 93 89 84 78 73 67 61 56 49 35 16 5 30 49 50 47 44 40
139 143 149 149 151 152 151 151 149 145 143 141 141 140 136 132 128 125 123 119 114 111 108 105 101 97 90 83 76 70 63 57 53 45 26 12 360 9 30 35 34 34 30
136 139 149 151 153 154 154 154 153 151 149 147 146 145 143 141 137 133 128 124 120 116 113 108 104 99 89 79 71 63 57 53 51 36 18 2 347 1 21 26 26 27 20
137 138 148 152 153 155 157 158 159 159 156 154 153 151 150 147 143 138 135 132 129 124 119 113 108 100 86 71 59 54 52 47 52 30 5 348 332 349 5 8 5 3 2
140 138 146 152 152 155 159 161 161 162 160 158 158 157 155 153 149 148 145 141 136 134 129 124 120 107 85 62 46 44 41 34 33 10 339 325 319 331 341 345 344 343 346
134 137 142 148 153 157 159 160 161 160 159 159 158 157 153 149 151 149 148 151 150 147 141 137 134 129 75 36 33 34 27 23 25 341 321 312 312 317 322 328 332 332 333
136 142 145 143 145 150 154 159 160 162 163 162 158 153 150 152 153 153 156 167 172 173 171 172 174 191 334 358 8 15 11 12 356 329 312 299 306 309 315 321 326 326 324
154 157 157 154 151 149 152 162 163 166 170 166 160 158 149 144 148 156 176 187 194 195 202 215 233 256 314 337 340 349 359 350 321 309 296 297 306 306 309 315 318 317 318
175 176 174 170 164 159 162 152 159 165 168 162 158 160 154 156 169 176 196 209 219 226 236 247 258 285 302 325 324 332 324 308 301 291 289 297 304 307 310 311 311 313 312
180 181 184 180 173 169 165 159 164 162 164 169 171 171 164 162 172 175 178 225 237 239 248 272 297 293 263 253 275 287 284 292 283 283 291 297 303 305 306 306 305 307 308
172 188 188 185 182 180 170 172 175 177 178 183 185 178 169 173 189 195 199 209 214 216 219 229 239 253 252 252 254 269 278 273 273 276 290 294 297 299 301 302 301 302 303
181 189 188 183 188 187 179 182 185 191 191 191 189 190 185 188 200 205 211 213 217 214 216 223 230 240 246 253 255 255 268 270 270 270 289 298 296 296 295 296 297 297 300
194 199 194 189 193 187 190 192 194 197 195 190 196 202 198 198 201 202 212 217 223 222 221 221 224 232 245 247 257 256 260 265 267 267 268 288 293 291 288 290 294 296 297
201 197 196 195 194 197 200 200 196 197 196 204 208 205 203 202 205 206 211 219 226 222 220 221 226 229 247 252 260 263 263 261 259 263 266 269 281 292 286 283 287 290 293
198 188 193 191 196 204 206 202 200 199 201 212 213 212 214 215 210 205 213 223 222 212 210 218 221 230 243 249 262 269 264 262 260 261 266 267 267 277 287 285 284 285 288
346 192 182 190 200 214 213 208 200 189 200 214 209 219 225 222 217 213 219 222 212 212 216 220 219 217 234 246 261 274 271 264 262 258 260 264 260 263 268 283 280 280 282
15 33 109 163 185 214 208 204 201 194 207 214 219 243 243 237 229 224 227 226 213 217 222 219 222 222 221 228 257 277 275 266 262 256 258 261 258 258 261 269 280 283 280
19 21 24 47 62 115 195 213 216 224 221 228 244 272 259 254 240 233 242 230 220 225 229 223 222 224 226 204 234 287 283 259 255 256 256 254 256 256 252 255 263 275 285
17 9 10 3 13 163 221 224 222 222 195 151 16 333 317 301 271 249 253 250 232 235 239 235 226 226 227 202 197 251 287 293 267 253 251 246 255 258 261 261 259 265 271
16 5 7 5 8 6 27 72 54 65 47 21 351 329 321 319 324 320 292 280 264 239 236 236 229 230 235 222 208 206 230 251 292 272 243 240 243 253 262 266 269 278 285
358 0 13 19 22 24 46 72 89 96 230 267 307 330 351 348 347 344 336 309 298 290 274 251 235 241 237 238 231 228 231 210 235 284 278 257 244 244 250 258 270 279 279
5 13 14 23 27 25 33 55 115 194 262 338 9 17 7 353 354 359 349 335 319 299 298 309 290 260 241 236 231 232 238 242 229 245 273 274 263 239 234 232 236 248 255
14 19 19 24 22 19 22 22 25 351 359 16 12 357 346 350 348 354 347 340 329 323 316 306 306 302 285 261 245 236 228 228 230 235 253 264 267 255 231 232 232 236 238